Погода в Мордыше

Россия / Владимирская область     56°18′38″N   40°36′44″E
темп.,
°C
ветер,
м/с
пор.,
м/с
влажн.,
%
обл.,
%
осадки,
мм/ч
давл.,
гПа
погр.,
м
28 октября, чт
чт2800:00+6зюз61385100 0.0 1012655
03:00+5зюз61285100 0.0 1012512
06:00+3юз5119490 0.0 1011370
09:00+5ююз51092100 0.3 1009374
12:00+5юз51193100 0.6 1009580
15:00+6з3994100 1.1 1010480
18:00+6с5894100 0.2 1014796
21:00+5с3986100 0.3 1018474
29 октября, пт
пт2900:00+5ссз3793100 0.0 1021329
03:00+3с249296 0.0 1023221
06:00+2всв1194100 0.0 102518
09:00+3ю2489100 0.0 1026179
12:00+6ююз51079100 0.0 1025623
15:00+5ююз61282100 0.2 1024630
18:00+6юз6128266 0.0 1023521
21:00+6юз5118996 0.0 1023368
30 октября, сб
сб3000:00+5юз5129633 0.0 1023267
03:00+6зюз51395100 0.0 1023298
06:00+6зюз5149493 0.0 1023318
09:00+7зюз5149111 0.0 1024371
12:00+11зюз613775 0.0 1024550
15:00+12зюз6137911 0.0 1024631
18:00+10зюз513915 0.0 1025362
21:00+9зюз5129210 0.0 1026310
31 октября, вс
вс3100:00+7зюз5129039 0.0 1026282
03:00+6зюз5138856 0.0 1027285
06:00+6юз5128540 0.0 1026267
09:00+6юз5138050 0.0 1026339
12:00+10зюз613635 0.0 1026487
15:00+10юз5116650 0.0 1025543
18:00+7юз5128046 0.0 1025301
21:00+6юз513835 0.0 1025313
1 ноября, пн
пн100:00+5юз513845 0.0 1024300
03:00+5юз514855 0.0 1024295
06:00+4юз513865 0.0 1024284
09:00+5юз412815 0.0 1024318
12:00+9юз511635 0.0 1023398
15:00+9юз410645 0.0 1023393
18:00+5юз39825 0.0 1023153
21:00+4юз37842 0.0 1023123